This demonstration page uses our WeatherBlox Daily Observations layout. Learn more.

Left ArrowRight Arrow

Hourly Observations for April 4, 2018

Temp ( °F °C ) Dew Point ( °F °C ) Humidity (%) Winds ( mph kmh ) Pressure ( in mb ) Visibility ( mi km ) Precip ( " mm )
12:51 am 00:51 Cloudy 52 11 46 8 82 82 W 20 31 29.65 1004 10 16 0.00 0.03
12:53 am 00:53 Cloudy 51 10.6 47 8.3 86 86 W 17 28 29.64 1004 10 16 0.00 0.03
1:40 am 01:40 Cloudy 48 8.9 43 6.1 83 83 W 15 24 29.71 1006 10 16 0.00 0.00
1:51 am 01:51 Cloudy 48 9 43 6 82 82 W 12 19 29.71 1006 10 16 0.00 0.00
1:53 am 01:53 Cloudy 48 8.9 43 6.1 83 83 W 15 24 29.68 1005 10 16 0.00 0.00
2:10 am 02:10 Cloudy 47 8.3 39 3.9 74 74 W 17 28 29.74 1007 10 16 0.00 0.00
2:53 am 02:53 Cloudy 46 7.8 37 2.8 71 71 W 22 35 29.73 1007 10 16 0.00 0.00
3:53 am 03:53 Cloudy 42 5.6 35 1.7 76 76 W 15 24 29.78 1008 10 16 0.00 0.03
4:16 am 04:16 Cloudy with Light Rain 41 5 35 1.7 79 79 W 16 26 29.83 1010 10 16 0.00 0.03
4:42 am 04:42 Cloudy 41 5 32 0 70 70 W 14 22 29.83 1010 10 16 0.00 0.03
4:53 am 04:53 Cloudy 41 5 31 -0.6 67 67 W 21 33 29.81 1010 10 16 0.00 0.03
5:53 am 05:53 Cloudy 39 3.9 26 -3.3 60 60 W 20 31 29.84 1011 10 16 0.00 0.00
6:53 am 06:53 Cloudy 38 3.3 25 -3.9 60 60 W 21 33 29.90 1012 10 16 0.00 0.00
7:53 am 07:53 Cloudy 37 2.8 24 -4.4 59 59 W 16 26 29.94 1014 10 16 0.00 0.03
8:53 am 08:53 Cloudy 36 2.2 25 -3.9 64 64 W 20 31 29.98 1015 10 16 0.00 0.03
9:53 am 09:53 Cloudy with Light Snow 36 2.2 28 -2.2 73 73 W 13 20 30.01 1016 4 6 0.00 0.03
10:53 am 10:53 Mostly Cloudy 38 3.3 25 -3.9 60 60 W 18 30 30.05 1018 10 16 0.00 0.03
11:53 am 11:53 Cloudy 37 2.8 24 -4.4 59 59 W 18 30 30.10 1019 10 16 0.00 0.00
12:53 pm 12:53 Cloudy 38 3.3 24 -4.4 57 57 W 17 28 30.12 1020 10 16 0.00 0.03
1:53 pm 13:53 Cloudy 38 3.3 24 -4.4 57 57 W 12 19 30.14 1021 10 16 0.00 0.00
2:53 pm 14:53 Cloudy 37 2.8 23 -5 57 57 WNW 17 28 30.16 1022 10 16 0.00 0.00
3:53 pm 15:53 Cloudy 37 2.8 23 -5 57 57 W 18 30 30.19 1022 10 16 0.00 0.00
4:53 pm 16:53 Cloudy 37 2.8 25 -3.9 62 62 W 13 20 30.20 1023 10 16 0.00 0.03
5:53 pm 17:53 Cloudy 37 2.8 23 -5 57 57 W 13 20 30.22 1024 10 16 0.00 0.03
6:53 pm 18:53 Cloudy 37 2.8 23 -5 57 57 W 10 17 30.24 1024 10 16 0.00 0.00
7:53 pm 19:53 Cloudy 36 2.2 23 -5 59 59 W 9 15 30.27 1025 10 16 0.00 0.00
8:53 pm 20:53 Cloudy 35 1.7 24 -4.4 64 64 W 7 11 30.28 1025 10 16 0.00 0.00
9:53 pm 21:53 Cloudy 35 1.7 23 -5 61 61 W 12 19 30.29 1026 10 16 0.00 0.00
10:53 pm 22:53 Cloudy 35 1.7 22 -5.6 59 59 W 13 20 30.30 1026 10 16 0.00 0.00
11:53 pm 23:53 Cloudy 33 0.6 20 -6.7 58 58 W 9 15 30.29 1026 10 16 0.00 0.00

Powered by AerisWeather